TimeCDT,TemperatureF,Dew PointF,Humidity,Sea Level PressureIn,VisibilityMPH,Wind Direction,Wind SpeedMPH,Gust SpeedMPH,PrecipitationIn,Events,Conditions,WindDirDegrees,DateUTC
12:52 AM,64.9,63.0,93,29.94,10.0,Calm,Calm,-,N/A,,Clear,0,2013-06-11 05:52:00
1:38 AM,64.4,62.6,94,29.95,2.5,Calm,Calm,-,N/A,,Clear,0,2013-06-11 06:38:00
1:52 AM,64.0,63.0,96,29.93,4.0,Calm,Calm,-,N/A,,Clear,0,2013-06-11 06:52:00
1:56 AM,62.6,62.6,100,29.95,1.5,Calm,Calm,-,N/A,,Clear,0,2013-06-11 06:56:00
2:04 AM,62.6,62.6,100,29.95,0.5,Calm,Calm,-,N/A,Fog,Fog,0,2013-06-11 07:04:00
2:31 AM,64.4,62.6,94,29.95,2.0,Calm,Calm,-,N/A,,Clear,0,2013-06-11 07:31:00
2:39 AM,62.6,62.6,100,29.95,3.0,Calm,Calm,-,N/A,,Clear,0,2013-06-11 07:39:00
2:52 AM,63.0,62.1,97,29.94,3.0,Calm,Calm,-,N/A,,Clear,0,2013-06-11 07:52:00
2:54 AM,62.6,62.6,100,29.96,1.5,Calm,Calm,-,N/A,,Clear,0,2013-06-11 07:54:00
3:04 AM,62.6,62.6,100,29.95,3.0,Calm,Calm,-,N/A,,Clear,0,2013-06-11 08:04:00
3:14 AM,62.6,62.6,100,29.96,1.8,Calm,Calm,-,N/A,,Clear,0,2013-06-11 08:14:00
3:30 AM,62.6,62.6,100,29.96,0.8,Calm,Calm,-,N/A,,Clear,0,2013-06-11 08:30:00
3:37 AM,64.4,62.6,94,29.96,1.8,Calm,Calm,-,N/A,,Clear,0,2013-06-11 08:37:00
3:40 AM,64.4,62.6,94,29.96,3.0,Calm,Calm,-,N/A,,Clear,0,2013-06-11 08:40:00
3:52 AM,63.0,62.1,97,29.95,3.0,Calm,Calm,-,N/A,,Clear,0,2013-06-11 08:52:00
4:03 AM,64.4,62.6,94,29.96,1.8,Calm,Calm,-,N/A,,Clear,0,2013-06-11 09:03:00
4:16 AM,62.6,62.6,100,29.97,0.8,Calm,Calm,-,N/A,,Clear,0,2013-06-11 09:16:00
4:23 AM,62.6,62.6,100,29.97,1.8,Calm,Calm,-,N/A,,Clear,0,2013-06-11 09:23:00
4:41 AM,62.6,62.6,100,29.97,0.5,Calm,Calm,-,N/A,Fog,Fog,0,2013-06-11 09:41:00
4:52 AM,63.0,62.1,97,29.96,1.0,Calm,Calm,-,N/A,,Clear,0,2013-06-11 09:52:00
5:00 AM,62.6,62.6,100,29.98,0.8,Calm,Calm,-,N/A,,Mist,0,2013-06-11 10:00:00
5:52 AM,62.1,61.0,96,29.98,0.2,Calm,Calm,-,N/A,Fog,Fog,0,2013-06-11 10:52:00
6:16 AM,62.6,62.6,100,30.00,1.2,Calm,Calm,-,N/A,,Partly Cloudy,0,2013-06-11 11:16:00
6:20 AM,62.6,62.6,100,30.00,3.0,Calm,Calm,-,N/A,,Clear,0,2013-06-11 11:20:00
6:52 AM,66.0,64.9,96,29.99,8.0,Calm,Calm,-,N/A,,Clear,0,2013-06-11 11:52:00
7:52 AM,72.0,66.9,84,30.01,10.0,Calm,Calm,-,N/A,,Clear,0,2013-06-11 12:52:00
8:52 AM,77.0,66.0,69,30.01,10.0,SSE,3.5,-,N/A,,Clear,160,2013-06-11 13:52:00
9:52 AM,79.0,64.0,60,30.00,10.0,Calm,Calm,-,N/A,,Clear,0,2013-06-11 14:52:00
10:52 AM,81.0,66.0,60,30.01,10.0,South,6.9,-,N/A,,Clear,190,2013-06-11 15:52:00
11:52 AM,84.0,64.9,53,30.01,10.0,South,6.9,-,N/A,,Clear,190,2013-06-11 16:52:00
12:52 PM,86.0,66.9,53,30.00,10.0,South,5.8,-,N/A,,Clear,190,2013-06-11 17:52:00
1:52 PM,87.1,66.9,51,29.98,10.0,Calm,Calm,-,N/A,,Clear,0,2013-06-11 18:52:00
2:52 PM,88.0,70.0,55,29.96,10.0,West,9.2,-,N/A,,Clear,260,2013-06-11 19:52:00
3:52 PM,88.0,70.0,55,29.95,10.0,SSW,5.8,-,N/A,,Clear,200,2013-06-11 20:52:00
4:52 PM,89.1,71.1,55,29.95,10.0,WNW,5.8,-,N/A,,Clear,290,2013-06-11 21:52:00
5:52 PM,88.0,72.0,59,29.95,10.0,SW,6.9,-,N/A,,Mostly Cloudy,230,2013-06-11 22:52:00
6:52 PM,87.1,75.0,67,29.94,10.0,SSW,5.8,-,N/A,,Clear,210,2013-06-11 23:52:00
7:52 PM,84.0,75.0,74,29.93,10.0,SSW,4.6,-,N/A,,Clear,200,2013-06-12 00:52:00
8:52 PM,82.0,75.0,79,29.93,10.0,SSW,5.8,-,N/A,,Clear,210,2013-06-12 01:52:00
9:52 PM,81.0,75.0,82,29.94,10.0,SSW,5.8,-,N/A,,Clear,210,2013-06-12 02:52:00
10:52 PM,82.0,73.9,76,29.96,10.0,Calm,Calm,-,N/A,,Clear,0,2013-06-12 03:52:00
11:52 PM,80.1,73.9,81,29.96,10.0,SW,3.5,-,N/A,,Clear,220,2013-06-12 04:52:00